Temp
25 25 25 25 24 24 24 24 24 23 23 23 22 22 22 22 21 21 21 21 21 21 21 20 20 20 20 19 17 17 16 15 14 13 13 13 13 13 12 12 11 12 12
26 25 24 25 25 25 24 24 24 23 23 23 23 22 22 22 22 21 21 21 21 21 21 21 20 20 20 20 17 17 16 16 15 14 13 13 13 12 12 12 12 11 11
25 24 25 27 27 24 24 23 23 23 24 23 23 23 22 22 22 22 21 20 21 21 21 21 20 20 20 19 17 16 16 15 15 13 13 13 13 12 12 12 11 11 11
23 22 23 23 23 23 24 24 24 24 24 24 24 23 23 23 22 22 22 21 21 21 21 21 21 20 20 19 17 16 15 15 15 14 13 12 12 12 11 11 11 11 9
21 21 20 21 21 21 21 22 23 23 23 24 24 24 23 23 23 23 22 21 21 21 21 21 21 21 20 20 18 16 16 15 15 13 13 12 12 12 11 11 11 11 11
21 21 21 21 21 22 22 22 22 23 23 23 23 23 23 23 23 22 22 21 21 22 21 22 21 20 19 19 18 16 16 16 15 13 13 12 13 12 12 11 11 11 11
20 20 21 21 21 22 22 22 23 23 24 24 23 23 22 22 23 22 21 21 22 22 22 21 20 20 19 19 18 17 16 16 15 15 15 14 14 13 12 12 12 11 11
19 20 20 21 21 21 22 22 22 23 23 23 24 24 23 23 23 22 22 21 21 22 22 21 21 21 20 19 18 17 16 16 16 14 14 14 13 13 13 12 12 12 12
19 19 20 20 21 21 21 21 22 23 24 24 24 23 23 23 22 22 22 22 21 22 22 22 21 21 20 18 18 17 16 16 15 14 14 14 14 13 13 12 11 12 12
19 19 19 19 19 19 19 20 20 20 22 23 24 23 22 22 23 21 21 21 22 21 21 22 20 20 19 18 18 17 16 15 15 14 14 14 14 13 13 12 11 13 12
17 17 17 17 17 17 17 18 18 18 19 20 21 21 21 21 22 22 21 20 21 21 21 21 21 21 19 18 18 16 15 15 15 14 13 13 13 13 13 13 12 12 12
15 15 15 15 15 15 15 15 16 16 17 18 17 18 19 19 19 20 19 19 18 18 19 19 20 21 18 18 17 16 15 14 14 14 13 13 13 13 13 13 13 12 12
14 14 14 14 14 15 15 15 15 15 16 15 15 15 17 18 17 17 17 17 16 16 17 17 19 18 16 17 16 15 14 13 13 13 13 13 13 13 13 13 13 13 13
14 14 13 13 14 14 14 15 15 14 14 14 14 14 14 15 17 16 16 16 16 16 16 16 17 16 16 16 16 14 14 12 12 13 13 13 12 13 13 12 13 13 12
12 11 12 12 12 12 13 14 14 14 15 14 14 14 14 14 14 15 16 16 15 15 16 15 15 15 15 15 15 13 13 13 13 13 13 12 13 12 12 12 12 12 12
10 9 9 10 10 11 11 12 14 14 14 14 14 14 14 14 15 15 15 15 14 14 14 14 15 15 15 15 15 14 13 13 13 12 12 13 13 12 13 12 12 12 13
8 8 8 8 9 9 10 11 12 13 14 14 14 15 14 14 14 14 14 14 14 13 13 13 14 14 14 15 15 14 14 13 13 12 12 13 13 13 12 12 12 13 13
7 8 8 8 9 9 9 10 11 12 12 12 13 14 14 13 13 14 14 14 14 13 13 13 13 13 14 15 15 14 14 13 13 13 12 13 13 13 13 13 13 13 13
7 7 8 8 8 9 9 10 10 11 11 12 13 13 13 13 13 14 13 13 14 14 14 13 13 13 13 15 15 14 14 14 13 13 12 13 13 13 13 14 14 13 13
7 7 7 8 8 8 9 9 10 10 11 11 10 12 12 13 13 13 13 13 14 14 14 13 13 13 13 13 14 14 14 13 13 13 12 12 12 13 13 14 14 14 13
7 7 8 8 8 9 8 9 9 10 10 11 11 11 12 11 12 12 13 13 12 12 12 12 13 13 13 13 13 14 13 13 12 12 12 13 14 14 14 14 13 13 14
7 8 8 8 8 8 9 8 9 9 10 10 11 11 12 11 11 11 12 13 12 12 12 12 12 12 13 13 14 13 13 12 12 11 13 13 13 12 13 14 14 13 13
8 8 8 8 8 8 8 9 9 9 10 11 10 11 11 11 10 10 11 12 12 11 12 11 12 13 12 13 13 13 13 13 13 13 13 13 13 12 13 13 13 13 12
8 8 8 8 8 8 8 9 9 9 10 11 11 11 11 10 10 10 11 11 12 11 12 12 11 12 12 12 12 12 12 12 11 12 12 12 12 12 12 12 11 11 11
8 8 8 8 8 8 8 8 9 9 9 10 11 11 10 10 10 10 10 10 10 11 11 11 12 11 11 11 11 11 10 10 10 10 10 10 10 10 10 10 10 10 9
9 8 8 8 8 8 8 8 9 9 9 11 10 10 10 10 9 10 9 9 9 9 10 10 11 10 11 11 10 10 10 11 10 10 10 9 8 8 9 8 8 7 7
Height
1533 1537 1540 1542 1544 1545 1545 1545 1546 1547 1547 1547 1547 1547 1547 1548 1549 1549 1549 1548 1547 1546 1545 1543 1540 1537 1534 1530 1529 1528 1527 1527 1526 1524 1523 1522 1521 1521 1520 1519 1520 1520 1519
1530 1533 1536 1537 1537 1538 1538 1540 1540 1540 1541 1541 1541 1541 1541 1542 1543 1543 1545 1545 1545 1544 1541 1539 1537 1534 1531 1528 1526 1524 1524 1525 1524 1523 1523 1522 1521 1520 1520 1521 1520 1521 1521
1526 1528 1530 1531 1534 1531 1533 1534 1534 1534 1535 1535 1535 1535 1535 1536 1537 1539 1539 1541 1541 1540 1538 1536 1533 1530 1527 1524 1523 1522 1522 1523 1523 1521 1521 1522 1522 1522 1523 1521 1521 1522 1522
1521 1524 1526 1527 1529 1529 1528 1529 1530 1530 1530 1530 1530 1530 1531 1531 1532 1532 1534 1535 1536 1534 1533 1530 1528 1525 1522 1521 1519 1519 1519 1521 1522 1521 1521 1522 1523 1522 1523 1523 1523 1523 1524
1522 1526 1526 1527 1526 1527 1527 1527 1526 1526 1526 1525 1525 1526 1526 1526 1527 1527 1528 1529 1529 1529 1527 1524 1522 1520 1518 1518 1517 1516 1516 1517 1519 1521 1520 1522 1523 1523 1524 1524 1523 1524 1525
1526 1527 1529 1529 1528 1527 1526 1524 1524 1522 1521 1521 1521 1521 1520 1521 1521 1522 1521 1522 1523 1522 1520 1518 1516 1517 1517 1516 1513 1514 1515 1515 1516 1518 1519 1522 1521 1522 1522 1525 1523 1525 1527
1529 1529 1529 1528 1528 1526 1524 1523 1523 1520 1518 1517 1517 1516 1515 1516 1515 1516 1517 1516 1515 1513 1510 1508 1510 1509 1512 1513 1511 1509 1511 1513 1514 1516 1518 1519 1520 1521 1522 1523 1524 1524 1527
1528 1528 1527 1525 1524 1523 1521 1520 1519 1517 1514 1513 1512 1511 1510 1510 1509 1509 1509 1508 1506 1504 1503 1503 1499 1502 1503 1507 1509 1507 1508 1511 1512 1514 1517 1518 1521 1520 1521 1523 1524 1524 1526
1525 1524 1523 1522 1520 1520 1520 1519 1517 1514 1511 1508 1506 1506 1505 1504 1503 1502 1501 1500 1498 1497 1497 1498 1497 1495 1499 1504 1506 1507 1507 1510 1512 1514 1516 1518 1518 1521 1521 1522 1524 1527 1528
1521 1520 1520 1519 1518 1516 1514 1512 1510 1507 1505 1502 1501 1499 1497 1496 1495 1495 1495 1493 1490 1489 1493 1495 1492 1494 1496 1499 1503 1504 1505 1507 1510 1513 1515 1517 1517 1520 1521 1523 1525 1527 1529
1518 1516 1515 1514 1512 1510 1508 1506 1504 1501 1497 1494 1493 1492 1490 1489 1487 1486 1486 1487 1485 1484 1487 1487 1487 1489 1491 1496 1498 1502 1504 1506 1508 1512 1513 1516 1516 1518 1519 1521 1523 1526 1528
1511 1509 1508 1506 1504 1502 1500 1499 1496 1493 1489 1486 1485 1483 1483 1481 1479 1479 1478 1479 1478 1479 1481 1484 1482 1485 1488 1492 1494 1497 1500 1505 1506 1509 1512 1514 1515 1516 1518 1519 1521 1523 1524
1501 1498 1497 1496 1495 1494 1491 1489 1487 1485 1482 1480 1479 1476 1474 1474 1472 1471 1471 1470 1471 1472 1474 1475 1479 1481 1485 1487 1489 1492 1496 1498 1504 1506 1509 1510 1512 1514 1515 1518 1520 1522 1523
1488 1486 1484 1482 1481 1481 1480 1478 1477 1476 1475 1474 1473 1471 1469 1468 1465 1465 1465 1464 1464 1464 1466 1469 1472 1476 1481 1483 1484 1488 1491 1495 1498 1503 1507 1509 1509 1511 1513 1515 1517 1520 1524
1477 1475 1473 1472 1470 1469 1468 1468 1466 1465 1466 1466 1466 1465 1463 1462 1462 1459 1460 1459 1459 1458 1462 1464 1467 1470 1474 1478 1480 1483 1487 1489 1494 1498 1503 1504 1506 1509 1512 1514 1517 1519 1522
1467 1466 1465 1463 1462 1460 1458 1456 1456 1455 1456 1456 1457 1455 1455 1454 1453 1452 1453 1453 1453 1455 1457 1460 1462 1465 1468 1471 1474 1478 1482 1485 1490 1492 1498 1500 1504 1506 1509 1512 1514 1516 1518
1459 1457 1455 1454 1452 1451 1450 1448 1446 1445 1444 1445 1447 1446 1446 1446 1445 1444 1445 1446 1447 1449 1449 1453 1454 1458 1462 1465 1469 1472 1476 1481 1485 1488 1493 1496 1499 1503 1504 1509 1512 1513 1516
1450 1448 1446 1445 1443 1442 1441 1439 1440 1438 1436 1435 1437 1438 1438 1437 1437 1436 1436 1435 1436 1438 1440 1443 1446 1450 1453 1457 1461 1465 1469 1474 1478 1482 1486 1493 1494 1497 1499 1501 1506 1510 1512
1441 1439 1438 1436 1434 1433 1432 1431 1430 1430 1427 1425 1427 1429 1431 1429 1427 1427 1426 1424 1426 1427 1430 1433 1437 1442 1445 1448 1453 1457 1461 1465 1470 1476 1481 1486 1491 1493 1495 1498 1501 1505 1508
1430 1429 1428 1426 1425 1424 1423 1422 1422 1421 1420 1419 1419 1420 1423 1421 1418 1417 1417 1416 1415 1415 1418 1422 1427 1432 1436 1441 1444 1449 1454 1459 1464 1469 1475 1480 1483 1487 1491 1492 1496 1499 1502
1421 1420 1419 1418 1416 1414 1414 1413 1413 1412 1411 1412 1413 1413 1414 1412 1410 1408 1408 1407 1407 1408 1411 1414 1418 1422 1429 1434 1438 1441 1447 1452 1458 1463 1468 1472 1476 1479 1483 1487 1491 1493 1496
1412 1410 1409 1407 1405 1404 1403 1404 1404 1404 1404 1403 1404 1405 1404 1404 1402 1401 1400 1400 1400 1401 1404 1408 1411 1416 1422 1426 1431 1436 1442 1447 1451 1457 1462 1465 1469 1475 1478 1481 1484 1489 1491
1403 1402 1400 1399 1396 1396 1396 1395 1395 1395 1396 1396 1398 1399 1397 1395 1395 1393 1392 1392 1394 1396 1399 1403 1407 1412 1416 1422 1428 1434 1439 1443 1448 1453 1457 1461 1465 1470 1473 1476 1479 1482 1487
1398 1396 1394 1392 1391 1389 1388 1387 1387 1387 1388 1388 1389 1389 1388 1388 1388 1388 1387 1388 1389 1392 1394 1398 1403 1407 1413 1419 1424 1428 1434 1440 1445 1448 1452 1456 1461 1464 1468 1472 1475 1477 1481
1395 1392 1390 1388 1386 1384 1382 1380 1380 1380 1380 1380 1380 1381 1381 1383 1383 1383 1384 1385 1387 1389 1393 1396 1402 1406 1410 1416 1422 1428 1432 1437 1441 1447 1447 1453 1459 1461 1461 1465 1471 1475 1477
1395 1392 1389 1386 1383 1380 1377 1375 1373 1372 1372 1372 1372 1373 1376 1378 1378 1379 1382 1383 1386 1390 1391 1389 1397 1400 1408 1414 1422 1429 1432 1437 1443 1448 1447 1453 1454 1456 1458 1463 1467 1470 1474
Wind_Speed
14 16 17 17 20 22 24 23 23 23 22 21 20 21 23 24 23 22 19 16 15 15 16 18 18 19 18 17 9 7 9 7 7 5 5 2 1 5 6 6 6 5 6
10 10 10 10 15 21 21 22 21 22 21 22 23 23 23 24 23 22 21 19 16 15 17 18 17 17 17 15 6 6 8 6 5 5 5 3 3 5 7 6 7 6 4
10 11 11 12 19 21 21 19 18 18 18 18 20 22 21 21 21 20 19 19 17 16 17 17 17 16 16 14 7 6 7 5 5 5 5 6 5 6 6 6 7 7 8
5 7 10 12 21 19 17 16 17 15 16 16 17 18 18 18 20 19 19 19 18 18 17 17 17 15 14 11 8 6 5 4 6 6 6 7 6 6 6 5 6 6 7
17 15 13 9 6 4 4 7 9 12 15 17 18 19 19 18 18 19 20 22 21 18 17 19 19 16 14 10 8 6 4 4 8 8 8 7 6 6 5 5 5 5 6
21 20 16 14 11 9 7 8 8 8 10 12 15 20 22 22 20 17 18 20 20 19 18 19 19 16 13 10 8 6 5 5 8 10 8 8 8 7 7 5 6 6 3
17 16 15 14 13 12 10 9 10 9 10 13 15 16 17 22 24 22 17 20 21 22 23 22 19 13 14 11 10 7 8 9 10 7 7 7 9 7 8 7 6 4 5
19 21 21 21 20 20 19 19 18 17 16 16 17 17 20 22 20 24 22 23 26 28 27 23 23 16 14 11 12 10 11 10 12 13 10 9 8 9 8 7 6 6 6
22 25 26 28 28 27 25 23 22 22 21 22 25 25 24 21 21 22 27 30 30 30 31 27 26 19 14 11 13 14 14 13 13 15 13 12 11 10 9 8 7 7 7
25 27 28 28 28 28 30 30 27 25 24 23 24 29 28 26 24 22 26 31 34 35 33 29 30 20 15 12 13 17 17 16 15 15 14 13 12 12 9 9 7 7 8
26 28 29 29 29 29 30 29 30 27 26 26 27 27 29 27 25 25 22 27 37 39 35 38 34 23 23 16 15 18 17 17 16 16 13 13 14 14 13 11 9 8 8
28 28 28 28 27 26 26 26 25 27 27 28 29 30 27 26 24 24 23 21 28 37 41 35 34 32 23 17 17 19 17 17 18 17 14 14 15 15 15 13 11 12 12
33 33 32 30 30 31 31 30 29 27 28 26 24 29 30 26 26 24 21 21 23 36 36 38 26 21 21 17 17 20 22 21 16 15 16 16 16 14 16 16 14 12 11
37 37 37 36 35 32 33 33 33 30 27 25 25 25 25 24 28 25 23 22 20 31 30 30 27 18 23 19 18 22 24 20 17 15 14 14 16 18 17 16 16 14 10
37 37 37 34 31 32 32 31 32 33 33 27 25 24 24 25 22 26 25 24 19 24 26 19 17 23 25 23 22 23 23 23 22 16 16 16 17 16 15 15 12 13 12
31 27 27 27 26 26 26 29 32 34 33 32 31 31 31 29 28 30 28 27 21 20 18 21 19 23 28 26 24 24 25 24 20 18 17 17 17 18 17 16 14 14 13
28 27 27 26 25 25 25 24 27 26 31 33 33 33 31 28 28 28 29 29 27 27 28 27 28 28 29 30 27 26 28 27 25 19 19 19 18 17 19 17 17 15 14
26 27 26 25 26 26 26 25 26 25 25 23 27 28 28 28 28 27 27 32 36 33 31 26 26 21 31 31 30 30 27 29 28 24 21 20 20 19 18 17 17 17 16
28 26 24 24 23 24 26 27 27 26 25 32 29 28 28 29 29 27 28 32 34 35 35 38 35 23 26 32 33 29 27 30 30 27 23 23 21 20 18 18 18 18 17
29 29 29 26 26 28 26 27 27 27 25 24 22 26 22 27 30 25 26 28 31 32 33 36 36 30 29 31 36 30 29 30 31 29 24 24 23 22 18 18 19 20 20
25 26 26 28 30 28 27 26 28 28 25 25 25 23 23 25 28 25 24 22 23 26 29 29 29 30 32 32 30 30 30 29 26 25 25 27 25 24 23 22 19 19 23
24 27 28 29 29 28 29 24 23 22 23 24 24 23 23 25 25 23 23 23 22 22 25 27 25 27 29 33 31 30 29 26 26 26 29 27 25 18 18 19 20 22 23
23 22 26 25 23 23 24 27 27 25 26 25 22 22 27 25 22 23 19 17 21 22 23 21 25 25 28 25 27 27 27 25 26 26 25 23 22 21 21 20 19 17 19
16 18 21 23 22 22 22 21 21 23 24 25 22 21 25 22 22 19 16 14 17 20 20 23 22 24 25 26 26 27 25 23 23 23 22 21 22 21 20 18 19 20 22
13 14 15 15 16 17 18 20 21 22 19 21 21 25 22 19 18 13 14 13 14 16 19 20 21 25 26 24 21 19 18 19 18 19 21 19 22 22 20 19 19 18 18
11 12 12 12 14 15 16 19 20 19 20 19 19 16 17 18 18 15 15 15 16 16 15 27 31 29 27 25 20 16 13 10 12 15 16 19 18 17 18 19 17 14 14
Wind_Direction
247 252 258 269 276 276 275 277 277 278 277 275 278 277 273 273 276 283 288 290 304 310 314 317 320 330 332 327 338 338 329 310 282 250 247 295 22 61 65 74 101 93 94
248 252 258 272 285 277 272 278 278 275 272 273 272 272 275 272 273 273 277 283 295 302 305 307 316 327 333 329 320 314 312 305 280 245 214 201 151 103 87 88 109 106 95
249 245 240 226 263 272 268 267 266 271 273 267 268 271 272 270 272 273 270 273 284 292 295 305 310 321 327 324 310 307 303 293 274 198 199 179 159 119 104 111 109 99 86
235 251 255 246 242 269 264 262 262 266 271 270 266 269 275 274 266 266 265 264 276 285 289 296 298 310 316 312 297 295 283 246 220 179 176 173 159 144 126 119 102 99 92
78 80 75 65 43 21 347 319 301 291 284 277 271 268 269 269 268 267 264 263 266 271 278 284 290 296 306 305 284 278 265 215 195 184 179 180 176 168 150 164 132 117 105
66 66 65 63 57 48 29 10 356 349 346 331 309 285 274 268 270 263 261 261 258 250 263 276 281 287 300 297 278 261 238 196 200 194 187 185 186 174 154 157 130 126 133
33 29 24 20 14 10 5 357 347 345 342 327 314 307 302 283 265 259 254 252 247 241 248 258 265 278 292 279 267 233 211 196 179 200 193 187 192 178 160 152 136 117 139
359 354 350 348 348 346 342 334 326 323 319 312 306 304 296 292 285 259 245 243 242 241 245 251 252 271 273 265 250 226 205 196 187 178 178 176 183 175 152 155 142 109 140
334 333 330 328 326 325 323 321 317 313 309 306 304 299 291 287 280 269 246 239 240 242 243 245 256 252 264 262 240 224 203 192 184 182 181 179 181 184 179 164 155 128 139
312 309 308 308 308 307 308 310 311 309 303 295 288 290 290 281 275 266 254 248 244 242 240 247 250 255 264 255 240 224 209 197 187 183 187 189 190 184 183 165 176 156 152
295 294 294 294 294 295 295 297 301 302 301 299 294 287 284 280 270 267 260 254 254 249 238 254 250 271 261 252 232 220 217 203 192 193 195 200 200 199 195 193 180 171 160
295 289 285 282 277 276 280 284 289 295 299 300 297 292 286 278 271 267 274 263 253 248 241 247 261 272 253 234 217 213 206 207 204 204 202 204 201 201 201 197 187 174 176
292 290 287 283 278 276 276 278 282 284 291 292 290 293 291 282 274 273 283 280 257 255 248 251 262 280 233 223 212 208 205 202 205 201 207 208 200 197 202 198 199 195 192
289 286 285 284 282 280 275 276 276 276 279 281 283 284 288 285 276 276 282 284 268 261 245 252 263 232 222 220 214 207 210 207 204 199 205 200 193 199 199 203 202 204 201
293 286 281 281 281 277 278 274 269 269 270 275 277 277 280 281 278 274 275 281 267 252 253 260 259 210 214 213 213 211 213 213 213 200 200 197 196 191 193 196 198 196 202
293 290 283 279 277 276 275 276 271 263 266 270 275 275 276 275 277 272 270 270 272 250 246 247 244 228 218 221 224 217 218 217 210 204 201 196 196 193 192 197 196 199 203
286 288 287 283 276 276 274 275 276 271 265 267 274 278 275 275 275 269 262 264 255 241 252 260 249 241 232 230 225 224 220 219 217 204 200 194 191 194 197 201 205 202 209
281 282 284 278 272 272 272 270 273 268 269 273 275 279 275 273 271 271 260 252 256 253 252 246 235 228 230 233 230 225 221 220 215 207 199 198 190 189 190 191 200 205 205
279 278 279 277 273 269 269 266 264 267 269 275 280 278 276 276 275 271 254 251 256 256 248 240 238 234 223 221 225 219 219 216 214 209 200 199 202 202 207 209 208 204 203
282 282 283 278 275 276 270 264 260 262 270 273 273 278 273 275 280 272 255 255 263 252 244 235 237 229 218 215 214 215 214 208 209 209 203 203 206 212 210 207 207 206 205
281 279 280 284 283 277 267 261 259 261 266 268 267 270 270 271 277 269 255 256 254 246 234 233 223 223 211 214 210 209 207 203 202 198 197 199 207 216 219 213 203 207 214
281 285 287 290 290 282 269 263 258 261 264 266 266 266 274 272 268 262 255 254 251 242 234 218 204 204 206 211 208 203 200 197 195 192 198 204 203 201 208 214 216 219 220
285 289 291 288 285 276 271 266 264 263 266 266 267 267 272 273 262 255 246 244 239 232 227 212 206 202 201 197 192 194 199 200 200 202 207 207 209 213 210 212 215 215 217
300 292 290 293 286 281 276 269 263 262 259 262 259 255 259 265 259 246 241 239 231 227 230 197 193 191 185 184 190 188 191 196 204 203 206 212 213 213 210 211 214 222 230
318 311 310 308 305 297 284 274 266 264 261 258 247 254 255 246 249 228 227 211 196 194 195 190 190 185 175 180 187 188 190 197 200 209 207 215 218 213 214 214 219 225 230
341 337 332 318 310 302 290 287 275 262 259 269 267 250 243 227 220 208 211 195 193 185 184 190 176 160 168 164 158 161 164 179 193 197 187 203 201 200 207 217 218 224 232